GW0360 Weather Reports


Display with metric or nautical units.
time (UTC)temp
F
wind
direction
speed
MPH
gust
MPH
rain 1hr
in
rain 24hr
in
rain mn
in
humidity
%
barometer
mb
20260903034039 84 200 1.0 4.0 0.00 0.00 0.00 58 1012.9
20260903033543 84 0 0.0 2.0 0.00 0.00 0.00 58 1013.0
20260903033056 84 0 0.0 2.0 0.00 0.00 0.00 58 1012.8
20260903032544 84 0 0.0 2.0 0.00 0.00 0.00 57 1013.0
20260903032044 84 244 0.0 5.0 0.00 0.00 0.00 57 1012.9
20260903031600 85 0 0.0 5.0 0.00 0.00 0.00 57 1012.9
20260903031047 85 0 0.0 3.0 0.00 0.00 0.00 57 1012.9
20260903030547 85 0 0.0 3.0 0.00 0.00 0.00 56 1012.9
20260903030100 85 245 0.0 4.0 0.00 0.00 0.00 56 1013.0
20260903025543 85 0 0.0 4.0 0.00 0.00 0.00 57 1012.9
20260903025041 85 0 0.0 2.0 0.00 0.00 0.00 56 1012.8
20260903024601 85 0 0.0 2.0 0.00 0.00 0.00 56 1012.9
20260903024043 85 0 0.0 3.0 0.00 0.00 0.00 56 1012.7
20260903023540 86 0 0.0 3.0 0.00 0.00 0.00 56 1012.7
20260903023102 86 0 0.0 2.0 0.00 0.00 0.00 57 1012.7
20260903022545 86 170 0.0 3.0 0.00 0.00 0.00 57 1012.7
20260903022045 86 0 0.0 3.0 0.00 0.00 0.00 57 1012.6
20260903021600 85 0 0.0 1.0 0.00 0.00 0.00 57 1012.7
20260903021043 86 0 0.0 1.0 0.00 0.00 0.00 57 1012.4
20260903020543 86 0 0.0 1.0 0.00 0.00 0.00 56 1012.5
20260903015543 87 0 0.0 1.0 0.00 0.00 0.00 56 1012.4
20260903015040 87 0 0.0 0.0 0.00 0.00 0.00 55 1012.3
20260903014624 87 0 0.0 1.0 0.00 0.00 0.00 55 1012.2
20260903014043 87 0 0.0 1.0 0.00 0.00 0.00 54 1012.1
20260903013540 87 0 0.0 1.0 0.00 0.00 0.00 54 1012.1
20260903013109 88 0 0.0 1.0 0.00 0.00 0.00 54 1011.9
20260903012545 88 167 0.0 2.0 0.00 0.00 0.00 53 1011.8
20260903012041 88 0 0.0 3.0 0.00 0.00 0.00 53 1011.9
20260903011601 89 0 0.0 3.0 0.00 0.00 0.00 53 1011.8
20260903011047 89 0 0.0 3.0 0.00 0.00 0.00 53 1011.8
20260903010543 89 0 0.0 3.0 0.00 0.00 0.00 52 1011.7
20260903005541 90 0 0.0 2.0 0.00 0.00 0.00 52 1011.6
20260903005043 90 0 0.0 2.0 0.00 0.00 0.00 51 1011.6
20260903004601 91 0 0.0 2.0 0.00 0.00 0.00 51 1011.6
20260903004043 91 141 0.0 2.0 0.00 0.00 0.00 50 1011.6
20260903003543 91 160 0.0 2.0 0.00 0.00 0.00 51 1011.6
20260903003119 91 0 0.0 2.0 0.00 0.00 0.00 51 1011.4
20260903002543 92 0 0.0 5.0 0.00 0.00 0.00 50 1011.5
20260903002044 92 0 0.0 5.0 0.00 0.00 0.00 49 1011.5
20260903001602 92 0 0.0 2.0 0.00 0.00 0.00 48 1011.5
20260903001043 93 0 0.0 2.0 0.00 0.00 0.00 48 1011.4
20260903000543 93 0 0.0 1.0 0.00 0.00 0.00 47 1011.4
20260903000108 94 0 0.0 2.0 0.00 0.00 0.00 45 1011.4
20260902235543 94 0 0.0 3.0 0.00 0.00 0.00 45 1011.5
20260902235043 95 0 0.0 3.0 0.00 0.00 0.00 44 1011.5
20260902234606 95 209 1.0 5.0 0.00 0.00 0.00 43 1011.7
20260902234047 95 214 1.0 5.0 0.00 0.00 0.00 42 1011.5
20260902233540 96 173 1.0 5.0 0.00 0.00 0.00 42 1011.6
20260902233102 96 165 1.0 7.0 0.00 0.00 0.00 42 1011.6
20260902232543 96 235 1.0 9.0 0.00 0.00 0.00 41 1011.6
20260902232044 96 199 2.0 9.0 0.00 0.00 0.00 40 1011.5
20260902231557 97 150 1.0 9.0 0.00 0.00 0.00 40 1011.6
20260902231041 97 0 2.0 8.0 0.00 0.00 0.00 40 1011.7
20260902230543 97 226 3.0 9.0 0.00 0.00 0.00 39 1011.7
20260902230119 97 164 2.0 9.0 0.00 0.00 0.00 39 1011.7
20260902225542 97 197 2.0 8.0 0.00 0.00 0.00 39 1011.8
20260902225044 98 250 3.0 9.0 0.00 0.00 0.00 38 1011.8
20260902224615 98 191 2.0 9.0 0.00 0.00 0.00 39 1011.8
20260902224043 98 185 2.0 10.0 0.00 0.00 0.00 38 1012.0
20260902223543 98 176 3.0 10.0 0.00 0.00 0.00 38 1011.9
20260902223112 98 229 3.0 10.0 0.00 0.00 0.00 38 1012.0
20260902222540 98 218 3.0 10.0 0.00 0.00 0.00 39 1012.0
20260902222040 98 0 1.0 9.0 0.00 0.00 0.00 38 1012.1
20260902221609 99 175 4.0 9.0 0.00 0.00 0.00 38 1012.0
20260902221041 99 182 4.0 11.0 0.00 0.00 0.00 37 1012.0
20260902220540 99 197 2.0 11.0 0.00 0.00 0.00 38 1012.1
20260902220100 99 172 3.0 11.0 0.00 0.00 0.00 37 1012.2
20260902215540 99 230 4.0 9.0 0.00 0.00 0.00 37 1012.2
20260902215047 99 254 3.0 9.0 0.00 0.00 0.00 37 1012.2
20260902214624 99 210 3.0 8.0 0.00 0.00 0.00 37 1012.3
20260902214042 99 169 2.0 10.0 0.00 0.00 0.00 37 1012.3
20260902213543 100 140 3.0 11.0 0.00 0.00 0.00 37 1012.3
20260902213102 99 236 2.0 12.0 0.00 0.00 0.00 36 1012.4
20260902212541 99 192 5.0 12.0 0.00 0.00 0.00 36 1012.5
20260902212041 99 163 1.0 8.0 0.00 0.00 0.00 38 1012.3
20260902211601 100 251 2.0 10.0 0.00 0.00 0.00 37 1012.5
20260902211040 100 130 3.0 10.0 0.00 0.00 0.00 36 1012.4
20260902210546 100 266 2.0 9.0 0.00 0.00 0.00 38 1012.5
20260902210058 100 223 2.0 15.0 0.00 0.00 0.00 38 1012.6
20260902205541 100 185 6.0 18.0 0.00 0.00 0.00 37 1012.6
20260902205043 100 199 2.0 18.0 0.00 0.00 0.00 38 1012.8
20260902204610 99 88 6.0 17.0 0.00 0.00 0.00 38 1012.8
20260902204043 99 272 2.0 7.0 0.00 0.00 0.00 37 1012.8
20260902203543 100 212 1.0 12.0 0.00 0.00 0.00 39 1012.7
20260902203056 100 137 1.0 12.0 0.00 0.00 0.00 37 1012.9
20260902202541 100 171 2.0 10.0 0.00 0.00 0.00 37 1013.0
20260902202041 100 170 4.0 13.0 0.00 0.00 0.00 36 1012.9
20260902201632 100 155 5.0 13.0 0.00 0.00 0.00 38 1013.0
20260902201041 100 261 5.0 15.0 0.00 0.00 0.00 38 1013.2
20260902200540 100 219 4.0 15.0 0.00 0.00 0.00 37 1013.1
20260902200058 99 226 4.0 11.0 0.00 0.00 0.00 38 1013.3
20260902195540 99 140 2.0 8.0 0.00 0.00 0.00 40 1013.3
20260902195043 100 180 1.0 8.0 0.00 0.00 0.00 40 1013.4
20260902194601 99 203 2.0 12.0 0.00 0.00 0.00 41 1013.3
20260902194045 100 209 4.0 12.0 0.00 0.00 0.00 39 1013.5
20260902193544 100 271 3.0 16.0 0.00 0.00 0.00 40 1013.6
20260902193104 99 259 6.0 16.0 0.00 0.00 0.00 39 1013.5
20260902192540 100 218 5.0 15.0 0.00 0.00 0.00 41 1013.7
20260902192041 100 150 4.0 11.0 0.00 0.00 0.00 39 1013.7
20260902191600 100 197 4.0 11.0 0.00 0.00 0.00 41 1013.8
20260902191044 99 163 5.0 11.0 0.00 0.00 0.00 41 1013.9
20260902190543 99 257 2.0 11.0 0.00 0.00 0.00 42 1013.9
20260902190100 99 211 4.0 10.0 0.00 0.00 0.00 41 1014.1
20260902185540 99 191 2.0 11.0 0.00 0.00 0.00 42 1014.0
20260902185041 99 238 4.0 12.0 0.00 0.00 0.00 42 1014.1
20260902184604 100 290 4.0 12.0 0.00 0.00 0.00 42 1014.2
20260902184043 99 128 3.0 11.0 0.00 0.00 0.00 43 1014.2
20260902183541 99 210 4.0 11.0 0.00 0.00 0.00 44 1014.4
20260902183102 99 217 2.0 11.0 0.00 0.00 0.00 44 1014.5
20260902182540 98 0 4.0 11.0 0.00 0.00 0.00 45 1014.6
20260902182041 98 235 1.0 10.0 0.00 0.00 0.00 46 1014.6
20260902181604 98 138 3.0 10.0 0.00 0.00 0.00 45 1014.6
20260902181040 97 204 3.0 10.0 0.00 0.00 0.00 46 1014.6
20260902180540 98 189 2.0 10.0 0.00 0.00 0.00 47 1014.7
20260902180113 97 140 3.0 10.0 0.00 0.00 0.00 46 1014.9
20260902175541 97 225 2.0 11.0 0.00 0.00 0.00 47 1014.9
20260902175040 97 200 3.0 11.0 0.00 0.00 0.00 48 1014.9
20260902174602 96 272 3.0 11.0 0.00 0.00 0.00 47 1014.9
20260902174040 96 186 1.0 10.0 0.00 0.00 0.00 48 1015.0
20260902173543 97 194 3.0 12.0 0.00 0.00 0.00 47 1015.0
20260902173056 96 152 3.0 12.0 0.00 0.00 0.00 48 1015.2
20260902172540 97 247 3.0 11.0 0.00 0.00 0.00 46 1015.2
20260902172044 96 242 5.0 12.0 0.00 0.00 0.00 46 1015.3
20260902171605 96 198 3.0 15.0 0.00 0.00 0.00 49 1015.3
20260902171040 96 225 4.0 15.0 0.00 0.00 0.00 48 1015.3
20260902170543 95 117 5.0 12.0 0.00 0.00 0.00 47 1015.4
20260902170106 96 164 3.0 12.0 0.00 0.00 0.00 48 1015.3
20260902165543 95 236 5.0 11.0 0.00 0.00 0.00 47 1015.4
20260902165040 95 219 4.0 9.0 0.00 0.00 0.00 48 1015.4
20260902164608 95 283 3.0 10.0 0.00 0.00 0.00 48 1015.3
20260902164040 94 0 2.0 14.0 0.00 0.00 0.00 49 1015.5
20260902163541 94 221 4.0 14.0 0.00 0.00 0.00 49 1015.6
20260902163103 94 188 5.0 12.0 0.00 0.00 0.00 49 1015.4
20260902162541 94 261 2.0 11.0 0.00 0.00 0.00 50 1015.6
20260902162040 93 199 3.0 11.0 0.00 0.00 0.00 49 1015.6
20260902161559 92 210 3.0 11.0 0.00 0.00 0.00 51 1015.5
20260902161040 92 216 5.0 12.0 0.00 0.00 0.00 51 1015.4
20260902160543 92 258 4.0 13.0 0.00 0.00 0.00 51 1015.6
20260902160054 92 216 5.0 13.0 0.00 0.00 0.00 51 1015.5
20260902155543 91 271 5.0 13.0 0.00 0.00 0.00 51 1015.6
20260902155041 91 223 3.0 14.0 0.00 0.00 0.00 53 1015.6
20260902154605 91 144 3.0 14.0 0.00 0.00 0.00 54 1015.6
20260902154041 91 224 2.0 12.0 0.00 0.00 0.00 54 1015.5
20260902153541 90 219 3.0 12.0 0.00 0.00 0.00 54 1015.5
20260902153057 90 244 3.0 10.0 0.00 0.00 0.00 54 1015.4
20260902152540 89 224 3.0 14.0 0.00 0.00 0.00 55 1015.4
20260902152040 89 217 4.0 14.0 0.00 0.00 0.00 56 1015.4
20260902151559 88 233 4.0 13.0 0.00 0.00 0.00 57 1015.3
20260902151040 88 242 4.0 13.0 0.00 0.00 0.00 56 1015.3
20260902150540 88 232 3.0 7.0 0.00 0.00 0.00 57 1015.2
20260902150103 87 212 2.0 11.0 0.00 0.00 0.00 58 1015.3
20260902145542 87 245 3.0 11.0 0.00 0.00 0.00 58 1015.4
20260902145041 86 188 3.0 10.0 0.00 0.00 0.00 58 1015.3
20260902144604 86 217 3.0 10.0 0.00 0.00 0.00 59 1015.4
20260902144040 85 235 4.0 10.0 0.00 0.00 0.00 59 1015.4
20260902143541 85 0 3.0 12.0 0.00 0.00 0.00 61 1015.3
20260902143103 84 200 3.0 13.0 0.00 0.00 0.00 61 1015.4
20260902142540 84 198 5.0 13.0 0.00 0.00 0.00 61 1015.5
20260902142041 84 165 4.0 11.0 0.00 0.00 0.00 61 1015.5
20260902141557 83 230 2.0 10.0 0.00 0.00 0.00 62 1015.6
20260902141040 83 210 3.0 10.0 0.00 0.00 0.00 62 1015.6
20260902140540 83 134 3.0 10.0 0.00 0.00 0.00 62 1015.5
20260902140109 83 207 4.0 10.0 0.00 0.00 0.00 62 1015.5
20260902135542 82 223 3.0 8.0 0.00 0.00 0.00 63 1015.7
20260902135041 82 243 2.0 8.0 0.00 0.00 0.00 64 1015.6
20260902134601 81 214 3.0 8.0 0.00 0.00 0.00 64 1015.5
20260902134040 81 0 0.0 6.0 0.00 0.00 0.00 66 1015.6
20260902133540 80 0 2.0 6.0 0.00 0.00 0.00 66 1015.6
20260902133105 80 0 1.0 5.0 0.00 0.00 0.00 67 1015.5
20260902132541 80 209 1.0 5.0 0.00 0.00 0.00 67 1015.6
20260902132130 79 204 1.0 5.0 0.00 0.00 0.00 67 1015.6
20260902131604 79 167 2.0 7.0 0.00 0.00 0.00 67 1015.5
20260902131042 79 216 1.0 7.0 0.00 0.00 0.00 68 1015.6
20260902130540 78 203 1.0 6.0 0.00 0.00 0.00 68 1015.6
20260902130106 78 158 1.0 6.0 0.00 0.00 0.00 68 1015.4
20260902125540 77 192 0.0 5.0 0.00 0.00 0.00 70 1015.6
20260902125041 77 0 0.0 5.0 0.00 0.00 0.00 70 1015.4
20260902124600 77 238 0.0 5.0 0.00 0.00 0.00 70 1015.4
20260902124040 77 0 0.0 4.0 0.00 0.00 0.00 70 1015.4
20260902123540 76 220 0.0 7.0 0.00 0.00 0.00 70 1015.3
20260902123058 76 200 0.0 7.0 0.00 0.00 0.00 71 1015.4
20260902122540 76 243 0.0 6.0 0.00 0.00 0.00 70 1015.4
20260902122109 76 0 1.0 6.0 0.00 0.00 0.00 70 1015.3
20260902121611 76 209 0.0 4.0 0.00 0.00 0.00 70 1015.3
20260902121043 76 241 0.0 4.0 0.00 0.00 0.00 69 1015.1
20260902120545 76 215 0.0 3.0 0.00 0.00 0.00 69 1015.1
20260902120104 76 0 1.0 7.0 0.00 0.00 0.00 69 1015.1
20260902115540 76 0 0.0 7.0 0.00 0.00 0.00 69 1015.1
20260902115041 76 169 0.0 4.0 0.00 0.00 0.00 69 1015.0
20260902114559 76 172 0.0 5.0 0.00 0.00 0.00 69 1014.9
20260902114041 77 223 1.0 5.0 0.00 0.00 0.00 69 1014.9
20260902113618 77 212 0.0 4.0 0.00 0.00 0.00 68 1014.9
20260902113105 77 0 0.0 7.0 0.00 0.00 0.00 68 1014.9
20260902112540 77 0 1.0 7.0 0.00 0.00 0.00 68 1014.8
20260902112044 77 212 1.0 8.0 0.00 0.00 0.00 68 1014.9
20260902111557 77 193 0.0 8.0 0.00 0.00 0.00 68 1014.8
20260902111044 77 219 1.0 7.0 0.00 0.00 0.00 67 1014.7
20260902110555 77 0 1.0 8.0 0.00 0.00 0.00 67 1014.8
20260902110055 77 190 2.0 8.0 0.00 0.00 0.00 67 1014.8
20260902105540 78 217 1.0 5.0 0.00 0.00 0.00 66 1014.8
20260902105043 78 229 0.0 5.0 0.00 0.00 0.00 66 1014.7
20260902104612 78 0 0.0 7.0 0.00 0.00 0.00 65 1014.7
20260902104042 78 227 2.0 8.0 0.00 0.00 0.00 65 1014.7
20260902103540 79 170 1.0 8.0 0.00 0.00 0.00 64 1014.7
20260902103104 79 197 3.0 8.0 0.00 0.00 0.00 64 1014.6
20260902102544 79 261 3.0 6.0 0.00 0.00 0.00 64 1014.6
20260902102040 79 175 3.0 6.0 0.00 0.00 0.00 63 1014.6
20260902101556 79 175 2.0 6.0 0.00 0.00 0.00 63 1014.5
20260902101047 80 152 2.0 10.0 0.00 0.00 0.00 62 1014.6
20260902100543 80 193 3.0 10.0 0.00 0.00 0.00 62 1014.4
20260902100054 80 0 2.0 7.0 0.00 0.00 0.00 62 1014.5
20260902095543 80 221 3.0 7.0 0.00 0.00 0.00 62 1014.4
20260902095045 80 199 2.0 7.0 0.00 0.00 0.00 62 1014.4
20260902094602 80 252 3.0 7.0 0.00 0.00 0.00 62 1014.5
20260902094041 80 234 2.0 7.0 0.00 0.00 0.00 62 1014.5
20260902093541 80 216 2.0 6.0 0.00 0.00 0.00 62 1014.4
20260902093059 80 232 2.0 6.0 0.00 0.00 0.00 62 1014.4
20260902092545 80 219 2.0 7.0 0.00 0.00 0.00 61 1014.4
20260902092047 80 238 2.0 7.0 0.00 0.00 0.00 61 1014.3
20260902091612 80 205 2.0 9.0 0.00 0.00 0.00 61 1014.2
20260902091044 80 204 3.0 9.0 0.00 0.00 0.00 61 1014.2
20260902090547 80 229 3.0 9.0 0.00 0.00 0.00 61 1014.2
20260902090107 80 176 3.0 7.0 0.00 0.00 0.00 61 1014.2
20260902085544 80 207 2.0 7.0 0.00 0.00 0.00 61 1014.2
20260902085044 80 186 2.0 7.0 0.00 0.00 0.00 61 1014.2
20260902084607 80 255 2.0 8.0 0.00 0.00 0.00 61 1014.1
20260902084045 80 238 3.0 9.0 0.00 0.00 0.00 61 1014.2
20260902083546 80 244 3.0 9.0 0.00 0.00 0.00 61 1014.1
20260902083114 80 236 3.0 7.0 0.00 0.00 0.00 61 1014.1
20260902082541 80 209 3.0 7.0 0.00 0.00 0.00 61 1014.1
20260902082044 80 233 2.0 8.0 0.00 0.00 0.00 61 1014.0
20260902081601 80 242 3.0 8.0 0.00 0.00 0.00 61 1014.0
20260902081044 80 211 2.0 7.0 0.00 0.00 0.00 61 1014.1
20260902080544 80 242 2.0 9.0 0.00 0.00 0.00 61 1014.0
20260902075549 80 211 3.0 9.0 0.00 0.00 0.00 61 1014.0
20260902075044 80 167 2.0 7.0 0.00 0.00 0.00 61 1014.0
20260902074619 80 227 3.0 6.0 0.00 0.00 0.00 61 1013.9
20260902074046 80 246 2.0 6.0 0.00 0.00 0.00 61 1013.9
20260902073544 80 0 2.0 6.0 0.00 0.00 0.00 61 1014.0
20260902073059 80 215 2.0 5.0 0.00 0.00 0.00 61 1014.0
20260902072547 80 229 2.0 6.0 0.00 0.00 0.00 61 1014.0
20260902072044 80 229 1.0 6.0 0.00 0.00 0.00 61 1014.0
20260902071558 80 219 1.0 7.0 0.00 0.00 0.00 61 1014.0
20260902071044 81 157 2.0 9.0 0.00 0.00 0.00 60 1014.0
20260902070544 81 213 2.0 9.0 0.00 0.00 0.00 60 1014.0
20260902070114 81 218 2.0 9.0 0.00 0.00 0.00 60 1014.0
20260902065544 81 214 3.0 8.0 0.00 0.00 0.00 60 1014.0
20260902065045 81 228 3.0 8.0 0.00 0.00 0.00 60 1014.0
20260902064604 81 252 3.0 8.0 0.00 0.00 0.00 60 1014.0
20260902064047 81 235 2.0 6.0 0.00 0.00 0.00 60 1014.1
20260902063544 81 258 1.0 4.0 0.00 0.00 0.00 60 1014.1
20260902063101 81 248 1.0 4.0 0.00 0.00 0.00 61 1014.1
20260902062545 81 0 1.0 5.0 0.00 0.00 0.00 60 1014.2
20260902062044 81 240 1.0 5.0 0.00 0.00 0.00 60 1014.1
20260902061600 81 205 0.0 6.0 0.00 0.00 0.00 60 1014.1
20260902061044 81 184 0.0 6.0 0.00 0.00 0.00 60 1014.1
20260902060546 81 213 2.0 6.0 0.00 0.00 0.00 60 1014.2
20260902060107 81 219 2.0 5.0 0.00 0.00 0.00 60 1014.1
20260902055544 81 216 0.0 6.0 0.00 0.00 0.00 60 1014.1
20260902055044 82 227 1.0 6.0 0.00 0.00 0.00 59 1014.1
20260902054609 81 227 2.0 6.0 0.00 0.00 0.00 60 1014.1
20260902054044 81 244 2.0 8.0 0.00 0.00 0.00 59 1014.2
20260902053544 81 168 2.0 8.0 0.00 0.00 0.00 59 1014.1
20260902053113 82 213 1.0 5.0 0.00 0.00 0.00 59 1014.1
20260902052546 82 198 1.0 7.0 0.00 0.00 0.00 58 1014.1
20260902052045 82 180 1.0 7.0 0.00 0.00 0.00 58 1014.2
20260902051619 82 222 0.0 5.0 0.00 0.00 0.00 58 1014.2
20260902051042 82 219 1.0 8.0 0.00 0.00 0.00 58 1014.2
20260902050546 82 0 2.0 8.0 0.00 0.00 0.00 57 1014.2
20260902050110 83 164 2.0 7.0 0.00 0.00 0.00 57 1014.2
20260902045543 83 209 1.0 9.0 0.00 0.00 0.00 57 1014.1
20260902045047 83 175 1.0 11.0 0.00 0.00 0.00 56 1014.1
20260902044605 83 226 2.0 11.0 0.00 0.00 0.00 56 1014.0
20260902044045 83 234 2.0 11.0 0.00 0.00 0.00 56 1013.9
20260902043544 84 214 3.0 11.0 0.00 0.00 0.00 55 1014.0
20260902043119 84 206 2.0 9.0 0.00 0.00 0.00 55 1014.0
20260902042547 84 218 2.0 8.0 0.00 0.00 0.00 55 1014.0
20260902042044 84 181 2.0 6.0 0.00 0.00 0.00 55 1014.0
20260902041559 84 157 1.0 7.0 0.00 0.00 0.00 55 1014.0
20260902041040 84 230 2.0 7.0 0.00 0.00 0.00 55 1014.1
20260902040540 84 224 2.0 7.0 0.00 0.00 0.00 55 1014.2
20260902040056 84 174 2.0 7.0 0.00 0.00 0.00 55 1014.2
20260902035539 84 192 3.0 7.0 0.00 0.00 0.00 55 1014.2
20260902035039 84 214 3.0 7.0 0.00 0.00 0.00 55 1014.1
20260902034601 83 227 2.0 9.0 0.00 0.00 0.00 55 1014.1